Hazard, Kentucky, United States (41701)
Lat: 37.25N, Lon: 83.19W
Wx Zone: KYZ115
Local Info
Past Weather Observations for Tuesday, May 3, 2016

NOTE: This archive is for the closest National Weather Service station to Hazard. Information may differ from the station used for current weather conditions.

Click here for Long-term Archive

Time Weather Temperature Dewpoint Humidity Pressure Winds Precip Visibility
23:53
Overcast
54°F / 12°C 46°F / 8°C 77% 29.86 in
(1011 mb)
Calm - 10SM
23:04
Overcast
54°F / 12°C 46°F / 8°C 77% 29.86 in
(1011 mb)
NW 4.6 mph
(NW 7 kph)
- 10SM
22:53
Overcast
54°F / 12°C 46°F / 8°C 77% 29.89 in
(1012 mb)
NW 3.5 mph
(NW 6 kph)
- 10SM
21:53
Overcast
54°F / 12°C 46°F / 8°C 77% 29.89 in
(1012 mb)
SSW 3.5 mph
(SSW 6 kph)
- 10SM
20:53
Mostly Cloudy
54°F / 12°C 46°F / 8°C 77% 29.89 in
(1012 mb)
Calm - 10SM
19:53
Overcast
55°F / 13°C 45°F / 7°C 67% 29.89 in
(1012 mb)
WNW 4.6 mph
(WNW 7 kph)
- 10SM
18:53
Overcast
55°F / 13°C 45°F / 7°C 67% 29.89 in
(1012 mb)
Calm - 10SM
17:53
Overcast
59°F / 15°C 46°F / 8°C 63% 29.89 in
(1012 mb)
W 5.8 mph
(W 9 kph)
- 10SM
16:53
Overcast
59°F / 15°C 45°F / 7°C 59% 29.89 in
(1012 mb)
W 6.9 mph
(W 11 kph)
- 10SM
15:53
Overcast
61°F / 16°C 46°F / 8°C 59% 29.89 in
(1012 mb)
W 10.4 mph
(W 17 kph)
- 10SM
14:53
Overcast
63°F / 17°C 46°F / 8°C 56% 29.89 in
(1012 mb)
W 11.5 mph
(W 19 kph)
- 10SM
13:53
Mostly Cloudy
63°F / 17°C 48°F / 9°C 59% 29.89 in
(1012 mb)
Variable 5.8 mph
(Variable 9 kph)
- 10SM
12:53
Mostly Cloudy
63°F / 17°C 50°F / 10°C 64% 29.89 in
(1012 mb)
Variable 3.5 mph
(Variable 6 kph)
- 10SM
11:53
Mostly Cloudy
63°F / 17°C 54°F / 12°C 73% 29.92 in
(1013 mb)
NW 6.9 mph
(NW 11 kph)
- 10SM
10:53
Overcast
57°F / 14°C 54°F / 12°C 88% 29.92 in
(1013 mb)
Variable 4.6 mph
(Variable 7 kph)
0.00 in
(0.00 mm)
10SM
10:48
Overcast
57°F / 14°C 54°F / 12°C 88% 29.92 in
(1013 mb)
SSW 6.9 mph
(SSW 11 kph)
0.00 in
(0.00 mm)
10SM
09:53
Overcast
57°F / 14°C 54°F / 12°C 88% 29.92 in
(1013 mb)
Variable 3.5 mph
(Variable 6 kph)
- 10SM
09:38
Overcast
57°F / 14°C 52°F / 11°C 82% 29.92 in
(1013 mb)
Variable 3.5 mph
(Variable 6 kph)
- 10SM
09:31
Overcast
57°F / 14°C 54°F / 12°C 88% 29.92 in
(1013 mb)
NW 5.8 mph
(NW 9 kph)
- 10SM
09:15
Overcast
55°F / 13°C 54°F / 12°C 94% 29.92 in
(1013 mb)
W 5.8 mph
(W 9 kph)
- 9SM
08:53
Overcast
55°F / 13°C 52°F / 11°C 88% 29.92 in
(1013 mb)
Variable 3.5 mph
(Variable 6 kph)
- 9SM
07:53
Overcast
Fog And Mist
55°F / 13°C 54°F / 12°C 94% 29.92 in
(1013 mb)
Variable 4.6 mph
(Variable 7 kph)
- 4SM
06:53
Overcast
Fog And Mist
55°F / 13°C 52°F / 11°C 88% 29.92 in
(1013 mb)
Calm - 4SM
06:24
Overcast
Fog And Mist
55°F / 13°C 54°F / 12°C 94% 29.92 in
(1013 mb)
W 5.8 mph
(W 9 kph)
- 3SM
06:15
Overcast
Fog And Mist
55°F / 13°C 54°F / 12°C 94% 29.92 in
(1013 mb)
W 3.5 mph
(W 6 kph)
- 2SM
06:10
Overcast
Fog And Mist
55°F / 13°C 54°F / 12°C 94% 29.92 in
(1013 mb)
WNW 3.5 mph
(WNW 6 kph)
- 1SM
05:53
Overcast
Fog And Mist
55°F / 13°C 54°F / 12°C 94% 29.89 in
(1012 mb)
Calm - 3/4SM
05:50
Overcast
Fog And Mist
55°F / 13°C 54°F / 12°C 94% 29.89 in
(1012 mb)
Calm - 1 1/2SM
05:26
Overcast
55°F / 13°C 52°F / 11°C 88% 29.89 in
(1012 mb)
NW 3.5 mph
(NW 6 kph)
- 9SM
05:10
Overcast
55°F / 13°C 52°F / 11°C 88% 29.89 in
(1012 mb)
NW 3.5 mph
(NW 6 kph)
- 9SM
04:53
Overcast
55°F / 13°C 54°F / 12°C 94% 29.89 in
(1012 mb)
NW 6.9 mph
(NW 11 kph)
0.03 in
(0.76 mm)
7SM
04:34
Overcast
Fog And Mist
55°F / 13°C 54°F / 12°C 94% 29.89 in
(1012 mb)
NW 4.6 mph
(NW 7 kph)
0.03 in
(0.76 mm)
6SM
04:27
Overcast
Fog And Mist
55°F / 13°C 54°F / 12°C 94% 29.89 in
(1012 mb)
Calm 0.03 in
(0.76 mm)
2 1/2SM
04:19
Overcast
Light Rain
55°F / 13°C 54°F / 12°C 94% 29.89 in
(1012 mb)
Calm 0.03 in
(0.76 mm)
3SM
04:15
Overcast
Light Rain
55°F / 13°C 54°F / 12°C 94% 29.89 in
(1012 mb)
Variable 3.5 mph
(Variable 6 kph)
0.03 in
(0.76 mm)
4SM
04:07
Overcast
Rain
55°F / 13°C 54°F / 12°C 94% 29.89 in
(1012 mb)
Calm 0.02 in
(0.51 mm)
2SM
03:56
Overcast
Thunder Storms
55°F / 13°C 54°F / 12°C 94% 29.92 in
(1013 mb)
W 3.5 mph
(W 6 kph)
0.00 in
(0.00 mm)
1 1/2SM
03:53
Overcast
Thunder Storms
55°F / 13°C 54°F / 12°C 94% 29.89 in
(1012 mb)
Calm - 2SM
03:46
Overcast
Fog And Mist
55°F / 13°C 54°F / 12°C 94% 29.89 in
(1012 mb)
Calm - 2 1/2SM
03:26
Overcast
55°F / 13°C 54°F / 12°C 94% 29.89 in
(1012 mb)
NW 3.5 mph
(NW 6 kph)
- 9SM
02:53
Overcast
55°F / 13°C 54°F / 12°C 94% 29.89 in
(1012 mb)
NW 5.8 mph
(NW 9 kph)
0.00 in
(0.00 mm)
10SM
02:49
Overcast
55°F / 13°C 54°F / 12°C 94% 29.89 in
(1012 mb)
NW 5.8 mph
(NW 9 kph)
0.00 in
(0.00 mm)
10SM
02:31
Overcast
Fog And Mist
55°F / 13°C 54°F / 12°C 94% 29.89 in
(1012 mb)
NW 5.8 mph
(NW 9 kph)
0.00 in
(0.00 mm)
5SM
01:53
Overcast
Light Rain
57°F / 14°C 55°F / 13°C 94% 29.89 in
(1012 mb)
Variable 3.5 mph
(Variable 6 kph)
0.01 in
(0.25 mm)
3SM
01:50
Overcast
Light Rain
57°F / 14°C 55°F / 13°C 94% 29.89 in
(1012 mb)
Calm 0.01 in
(0.25 mm)
2 1/2SM
01:49
Overcast
Light Rain
57°F / 14°C 55°F / 13°C 94% 29.89 in
(1012 mb)
Calm 0.01 in
(0.25 mm)
1 3/4SM
00:53
Obscured
Light Rain
57°F / 14°C 57°F / 14°C 100% 29.92 in
(1013 mb)
Calm 0.02 in
(0.51 mm)
1/2SM
00:27
Obscured
Light Rain
57°F / 14°C 57°F / 14°C 100% 29.92 in
(1013 mb)
Calm 0.00 in
(0.00 mm)
1/2SM
Time Weather Temperature Dewpoint Humidity Pressure Winds Precip Visibility


Weather for websites

WeatherForYou.com, LLC is not responsible for any damages or problems caused by this service. Current weather conditions are obtained from the closest station including government and personal stations which may have varying degrees of accuracy. Weather forecasts are derived from the NOAA NDFD. Like all things, this site belongs to Jesus Christ... He just trusts us to maintain it. If you have any questions or comments email webmaster@weatherforyou.com

Copyright © 2016, WeatherForYou.com LLC. All rights reserved.